Starlink 5482

operational
NORAD ID: 56358 Int'l Des: 2023-058 Owner: SPXS Country: US Constellation: starlink
LEOCIRCULARRETROGRADESSO

About Starlink 5482

Description loading...

Live Position

Loading 3D Globe...

Upcoming Passes

Altitude History

Altitude vs Time

uPlot chart will show altitude changes over time

Two-Line Element Set

1 56358U 23058AT 26102.42617801 .00000227 00000-0 19957-4 0 9991
2 56358 97.6030 103.4217 0001636 84.0294 276.1119 15.05651624163209
Epoch: Apr 12, 2026 • Age: 7 hours

Current Status

Altitude 555.2 km
Velocity 7.59 km/s
Sub-Earth Point 42.98°N, 168.3°W
Launch Date Apr 27, 2023
Age 2.9 years
Type internet

Technical Details

Classification Payload
Mass 300.00 kg
Dry Mass 260.00 kg
Total Mass 300.00 kg
Length 0.20 m
Diameter 2.80 m
Span 9.00 m
Shape Box + pan
Manufacturer SPXS
Bus Type Starlink
Phase Status In Orbit
Owner/State SPXS/US

Large Constellations

Loading constellations...